SHIJIAN 30C

导读

SJ-30C(实践三十号C)卫星是中国于**2025年11月19日**在酒泉卫星发射中心,由长征二号丙运载火箭发射升空的科学试验卫星,与实践三十号A、B星一同进入预定轨道,任务取得圆满成功。该卫星主要用于开展空间环境探测及相关空间科学技术试验验证,为我国后续空间技术发展积累数据与经验。

基本信息
目录编号:
66547
目录名称:
SJ-30C
国际标识:
2025-266C
轨道中心:
EARTH
卫星名称:
SJ-30C
卫星全名:
SHIJIAN 30C
卫星状态:
在轨 (已飞行207 天)
发射日期:
2025-11-19 UTC
国别 :
中国 (CN)
星等 :
--
轨道信息
数据来源 国际轨道数据 AOE轨道数据
星历时间 2026-06-15T00:01:50+0800
6小时前
查看轨道信息
2026-06-14T07:00:00+0800
23小时前
查看轨道信息
半长轴 6897.829km 6897.841km
偏心率 0.0007371 0.0007487
轨道倾角 51.794° 51.795°
近地点辐角 244.477° 241.212°
升交点赤经 191.198° 194.524°
平近点角 115.545° 205.104°
近地点 514.607km 514.539km
远地点 524.777km 524.869km
周期 95.023分钟 95.023分钟
每日圈数 15.154239 15.154202
详细信息
使用方式:
暂无
2D轨道图
3D轨道图
轨道高度分析图
轨道倾角分析图
轨道综合分析图
查看轨道综合分析图